TimeEDT,TemperatureF,Dew PointF,Humidity,Sea Level PressureIn,VisibilityMPH,Wind Direction,Wind SpeedMPH,Gust SpeedMPH,PrecipitationIn,Events,Conditions,WindDirDegrees,DateUTC
12:15 AM,60.8,60.8,100,30.17,7.0,South,9.2,-,N/A,,Overcast,180,2013-08-06 04:15:00
12:35 AM,60.8,59.0,94,30.17,7.0,South,6.9,-,N/A,,Overcast,170,2013-08-06 04:35:00
12:55 AM,60.8,59.0,94,30.17,5.0,South,9.2,-,N/A,,Overcast,180,2013-08-06 04:55:00
1:15 AM,60.8,59.0,94,30.16,5.0,South,8.1,-,N/A,,Overcast,180,2013-08-06 05:15:00
1:35 AM,60.8,59.0,94,30.15,7.0,South,8.1,-,N/A,,Overcast,170,2013-08-06 05:35:00
1:55 AM,60.8,59.0,94,30.15,7.0,South,9.2,-,N/A,,Overcast,180,2013-08-06 05:55:00
2:15 AM,60.8,59.0,94,30.15,10.0,South,9.2,-,N/A,,Overcast,180,2013-08-06 06:15:00
2:35 AM,60.8,59.0,94,30.15,10.0,South,8.1,-,N/A,,Overcast,180,2013-08-06 06:35:00
2:55 AM,60.8,59.0,94,30.15,10.0,South,8.1,-,N/A,,Overcast,170,2013-08-06 06:55:00
3:15 AM,60.8,59.0,94,30.14,7.0,South,5.8,-,N/A,,Overcast,180,2013-08-06 07:15:00
3:35 AM,60.8,59.0,94,30.14,5.0,South,6.9,-,N/A,,Overcast,170,2013-08-06 07:35:00
3:55 AM,60.8,59.0,94,30.13,5.0,South,4.6,-,N/A,,Overcast,170,2013-08-06 07:55:00
4:15 AM,60.8,59.0,94,30.13,4.0,South,4.6,-,N/A,,Overcast,170,2013-08-06 08:15:00
4:35 AM,60.8,59.0,94,30.13,3.0,South,4.6,-,N/A,,Overcast,170,2013-08-06 08:35:00
4:55 AM,60.8,60.8,100,30.13,2.5,South,4.6,-,N/A,,Overcast,180,2013-08-06 08:55:00
5:15 AM,60.8,60.8,100,30.13,2.0,South,4.6,-,N/A,,Overcast,180,2013-08-06 09:15:00
5:35 AM,60.8,60.8,100,30.14,1.2,South,5.8,-,N/A,,Overcast,190,2013-08-06 09:35:00
5:55 AM,60.8,60.8,100,30.14,1.0,South,3.5,-,N/A,,Overcast,180,2013-08-06 09:55:00
6:15 AM,60.8,60.8,100,30.14,2.0,Calm,Calm,-,N/A,,Overcast,0,2013-08-06 10:15:00
6:35 AM,60.8,60.8,100,30.13,3.0,South,3.5,-,N/A,,Overcast,180,2013-08-06 10:35:00
6:55 AM,60.8,60.8,100,30.14,1.2,South,4.6,-,N/A,,Drizzle,190,2013-08-06 10:55:00
7:15 AM,60.8,60.8,100,30.15,2.5,SW,5.8,-,N/A,,Light Drizzle,230,2013-08-06 11:15:00
7:35 AM,60.8,60.8,100,30.15,3.0,SW,6.9,-,N/A,,Overcast,220,2013-08-06 11:35:00
7:55 AM,60.8,60.8,100,30.16,0.2,NW,3.5,-,N/A,Fog,Fog,320,2013-08-06 11:55:00
8:15 AM,60.8,60.8,100,30.15,0.2,SW,4.6,-,N/A,,Drizzle,230,2013-08-06 12:15:00
8:35 AM,60.8,60.8,100,30.16,0.8,WSW,6.9,-,N/A,,Overcast,240,2013-08-06 12:35:00
8:55 AM,60.8,60.8,100,30.16,0.2,WSW,8.1,-,N/A,Fog,Fog,250,2013-08-06 12:55:00
9:15 AM,62.6,62.6,100,30.17,1.2,West,9.2,-,N/A,,Overcast,260,2013-08-06 13:15:00
9:35 AM,62.6,62.6,100,30.17,1.0,WSW,6.9,-,N/A,,Overcast,250,2013-08-06 13:35:00
9:55 AM,62.6,62.6,100,30.17,1.2,WSW,5.8,-,N/A,,Overcast,250,2013-08-06 13:55:00
10:35 AM,62.6,62.6,100,30.17,3.0,WNW,6.9,-,N/A,,Overcast,290,2013-08-06 14:35:00
10:55 AM,64.4,62.6,94,30.18,4.0,West,5.8,-,N/A,,Overcast,270,2013-08-06 14:55:00
11:15 AM,66.2,62.6,88,30.18,10.0,WSW,4.6,-,N/A,,Scattered Clouds,240,2013-08-06 15:15:00
11:35 AM,68.0,60.8,78,30.18,10.0,WSW,5.8,-,N/A,,Scattered Clouds,250,2013-08-06 15:35:00
11:55 AM,69.8,57.2,64,30.19,10.0,WNW,5.8,-,N/A,,Scattered Clouds,290,2013-08-06 15:55:00
12:15 PM,69.8,57.2,64,30.18,10.0,Calm,Calm,-,N/A,,Scattered Clouds,0,2013-08-06 16:15:00
12:35 PM,69.8,57.2,64,30.18,10.0,SW,3.5,-,N/A,,Scattered Clouds,230,2013-08-06 16:35:00
12:55 PM,69.8,59.0,68,30.19,10.0,West,4.6,-,N/A,,Mostly Cloudy,280,2013-08-06 16:55:00
1:15 PM,69.8,57.2,64,30.19,10.0,SW,4.6,-,N/A,,Mostly Cloudy,230,2013-08-06 17:15:00
1:35 PM,69.8,59.0,68,30.19,10.0,West,5.8,-,N/A,,Mostly Cloudy,260,2013-08-06 17:35:00
1:55 PM,71.6,62.6,73,30.18,10.0,SE,3.5,-,N/A,,Mostly Cloudy,140,2013-08-06 17:55:00
2:15 PM,69.8,62.6,78,30.18,10.0,SSE,5.8,-,N/A,,Mostly Cloudy,160,2013-08-06 18:15:00
2:35 PM,69.8,62.6,78,30.18,10.0,Calm,Calm,-,N/A,,Mostly Cloudy,0,2013-08-06 18:35:00
2:55 PM,69.8,62.6,78,30.18,10.0,SE,3.5,-,N/A,,Overcast,140,2013-08-06 18:55:00
3:15 PM,69.8,62.6,78,30.18,10.0,SSE,6.9,-,N/A,,Mostly Cloudy,150,2013-08-06 19:15:00
3:35 PM,69.8,62.6,78,30.18,7.0,South,5.8,-,N/A,,Scattered Clouds,180,2013-08-06 19:35:00
3:55 PM,71.6,64.4,78,30.18,10.0,ESE,5.8,-,N/A,,Scattered Clouds,110,2013-08-06 19:55:00
4:15 PM,69.8,62.6,78,30.18,10.0,South,4.6,-,N/A,,Mostly Cloudy,170,2013-08-06 20:15:00
4:35 PM,71.6,64.4,78,30.18,10.0,SSE,4.6,-,N/A,,Mostly Cloudy,150,2013-08-06 20:35:00
4:55 PM,69.8,62.6,78,30.18,10.0,SE,4.6,-,N/A,,Scattered Clouds,140,2013-08-06 20:55:00
5:15 PM,69.8,64.4,83,30.18,10.0,SE,5.8,-,N/A,,Mostly Cloudy,140,2013-08-06 21:15:00
5:35 PM,71.6,64.4,78,30.18,10.0,SSE,4.6,-,N/A,,Mostly Cloudy,160,2013-08-06 21:35:00
5:55 PM,71.6,64.4,78,30.17,10.0,SSE,5.8,-,N/A,,Scattered Clouds,160,2013-08-06 21:55:00
6:15 PM,71.6,64.4,78,30.18,10.0,SSE,5.8,-,N/A,,Clear,160,2013-08-06 22:15:00
6:35 PM,69.8,64.4,83,30.18,10.0,South,6.9,-,N/A,,Clear,170,2013-08-06 22:35:00
6:55 PM,69.8,64.4,83,30.18,10.0,Calm,Calm,-,N/A,,Clear,0,2013-08-06 22:55:00
7:15 PM,69.8,66.2,88,30.18,7.0,SSE,4.6,-,N/A,,Clear,160,2013-08-06 23:15:00
7:35 PM,68.0,66.2,94,30.18,7.0,ESE,4.6,-,N/A,,Scattered Clouds,120,2013-08-06 23:35:00
7:55 PM,66.2,66.2,100,30.19,7.0,South,6.9,-,N/A,,Mostly Cloudy,170,2013-08-06 23:55:00
8:15 PM,66.2,66.2,100,30.19,5.0,SSE,5.8,-,N/A,,Overcast,150,2013-08-07 00:15:00
8:35 PM,66.2,66.2,100,30.19,4.0,South,5.8,-,N/A,,Mostly Cloudy,170,2013-08-07 00:35:00
8:55 PM,64.4,64.4,100,30.19,0.2,SSE,3.5,-,N/A,Fog,Fog,160,2013-08-07 00:55:00
9:15 PM,66.2,66.2,100,30.19,0.2,SSE,5.8,-,N/A,Fog,Fog,160,2013-08-07 01:15:00
9:35 PM,64.4,64.4,100,30.19,0.2,South,4.6,-,N/A,Rain,Light Rain,180,2013-08-07 01:35:00
9:55 PM,64.4,64.4,100,30.19,0.2,South,5.8,-,N/A,Rain,Light Rain,180,2013-08-07 01:55:00
10:15 PM,64.4,64.4,100,30.20,0.2,South,6.9,-,N/A,Rain,Light Rain,170,2013-08-07 02:15:00
10:35 PM,64.4,64.4,100,30.20,0.2,SSE,4.6,-,N/A,Rain,Light Rain,160,2013-08-07 02:35:00
10:55 PM,64.4,64.4,100,30.20,0.2,Calm,Calm,-,N/A,Rain,Light Rain,0,2013-08-07 02:55:00
11:15 PM,64.4,64.4,100,30.20,0.2,SSE,6.9,-,N/A,Rain,Rain,160,2013-08-07 03:15:00
11:35 PM,64.4,64.4,100,30.20,0.2,South,5.8,-,N/A,Rain,Rain,170,2013-08-07 03:35:00
11:55 PM,64.4,64.4,100,30.20,0.2,SE,5.8,-,N/A,Rain,Light Rain,140,2013-08-07 03:55:00